User: anonymous   Login
Location: Unspecified
(0.0000°N, 0.0000°E)
Time: 21:13:13
(UTC+00:00)
Language:

TRS 9 - Orbit

View from above orbital plane
View from above orbital plane
View from above satellite
View from above satellite

Ground track
Ground track

The orbit data is extracted from the following two-line orbital elements,

1   635U 63030B   18015.61539134 +.00000003 +00000-0 +44719-3 0  9994
2   635 088.4279 026.6306 0058093 239.7404 119.7687 08.57927377706750
Epoch (UTC): 15 January 2018 14:46:09
Eccentricity: 0.0058093
inclination: 88.4279°
perigee height: 3642 km
apogee height: 3760 km
right ascension of ascending node: 26.6306°
argument of perigee: 239.7404°
revolutions per day: 8.57927377
mean anomaly at epoch: 119.7687°
orbit number at epoch: 70675

The dashed part of the orbit path shows where the satellite is in the earth's shadow,  

DLR